Theta_e
327 317 315 320 319 316 311 302 296 293 295 290 284 290 294 297 296 298 299 299 299 303 304 312 310 310 305 305 307 314 317 306 305 301 296 311 331 336 337 338 340 339 338 337 335 335 336 343 345 346 346 347 348 348 348 347 348 348 348 347 347 347 347 346 345 343 342 344 344 343 341 340 340 340 339 338 339 340 339 339 339 339 340 339 340 340 341 340 341 342 343 344 345 344 343 343 343
323 313 312 318 316 307 303 299 291 289 286 284 286 288 292 294 298 296 296 297 299 308 310 316 317 318 318 317 317 315 314 321 319 316 325 332 336 336 338 339 340 339 338 334 334 334 335 338 345 344 346 347 347 347 348 347 348 347 347 347 346 347 346 345 345 343 342 343 342 341 342 341 341 341 341 341 341 340 340 340 339 339 339 340 339 339 340 339 339 340 340 342 344 344 342 343 342
322 312 314 312 306 304 301 298 295 284 286 284 283 288 293 295 295 296 295 301 305 310 312 312 313 313 312 313 311 308 305 325 325 327 327 335 331 334 339 339 340 339 336 333 334 334 334 338 343 346 347 347 346 346 347 347 347 347 347 347 346 345 345 344 344 343 341 341 342 344 342 339 338 338 338 338 337 338 338 340 340 340 340 340 340 339 340 339 339 339 340 341 343 343 342 342 342
316 312 310 306 306 299 295 291 287 286 290 282 282 289 293 295 295 296 300 304 309 309 305 308 311 313 312 311 312 317 317 320 326 327 326 331 332 337 339 340 339 337 335 334 334 332 334 339 344 345 344 346 346 346 347 347 347 347 347 346 346 345 344 344 343 342 341 340 343 340 338 340 339 338 341 341 340 339 339 338 338 339 338 339 338 338 339 339 339 338 339 341 342 343 343 342 342
312 316 307 303 300 300 295 291 288 284 287 283 284 287 292 295 299 299 302 302 303 300 304 305 309 314 315 314 312 307 310 322 327 328 327 331 339 339 340 339 337 335 334 334 334 332 335 341 343 344 344 346 346 346 346 347 347 347 345 344 343 342 343 342 342 342 340 339 340 339 339 339 340 340 340 339 338 337 338 339 339 339 339 338 338 338 338 338 338 338 339 340 341 342 342 341 341
310 310 311 307 302 301 295 293 291 288 287 286 288 291 294 299 301 300 301 300 299 301 303 305 309 309 312 315 315 311 319 316 325 326 327 332 338 339 340 337 336 335 334 333 331 332 333 340 344 345 346 346 345 345 347 347 347 346 344 343 343 342 342 342 341 340 339 339 339 338 338 338 339 339 339 340 340 339 337 338 338 337 338 338 337 338 338 339 338 338 338 339 340 342 341 341 341
313 304 302 302 300 298 292 288 286 287 290 289 289 294 299 299 300 298 298 300 303 307 307 311 313 312 311 311 317 320 322 323 324 325 331 335 338 339 339 337 336 334 333 333 332 332 333 340 345 346 347 346 345 345 346 346 346 345 344 343 342 342 341 340 340 338 338 338 337 338 337 337 338 340 340 340 340 340 339 339 338 338 339 339 338 338 338 338 339 338 338 339 340 341 341 340 340
310 305 301 294 291 294 288 287 288 286 290 290 291 301 299 301 298 297 298 299 300 303 309 310 307 307 307 314 309 319 322 324 327 332 335 337 338 338 338 337 335 334 333 332 332 333 342 339 344 344 345 346 346 345 345 346 346 345 344 343 342 342 340 339 339 338 338 339 338 337 338 341 342 341 341 340 339 339 339 339 339 338 338 338 338 338 339 339 340 339 338 339 339 341 340 339 339
306 303 300 297 294 290 285 289 288 289 288 292 297 299 305 300 298 297 297 297 299 302 305 305 306 301 306 310 309 315 320 328 333 334 336 336 336 337 338 336 335 334 333 334 332 333 334 338 341 342 342 345 346 346 346 345 345 345 344 343 342 341 339 338 337 338 338 337 335 337 340 340 341 341 341 340 338 337 337 338 338 338 337 337 338 338 338 338 338 338 338 339 339 340 339 338 339
303 302 295 293 291 292 286 285 288 289 291 295 297 299 300 298 297 296 296 298 300 299 301 303 303 302 308 309 310 317 319 329 333 333 335 336 337 337 336 335 335 335 334 333 332 333 333 341 337 340 342 343 344 346 345 344 344 344 344 342 341 339 338 337 336 336 336 335 334 336 337 340 342 341 341 341 339 338 338 338 338 338 339 338 336 335 336 336 337 337 338 337 339 339 338 337 338
297 297 297 294 286 287 287 285 285 288 294 292 297 298 299 296 295 295 296 297 298 300 306 310 310 311 310 311 309 315 321 330 331 330 334 336 337 337 335 335 335 335 335 335 332 333 332 333 339 337 339 339 341 344 344 344 344 343 343 341 340 338 337 336 337 337 336 336 335 336 336 337 337 338 338 339 340 340 340 338 337 337 335 335 336 337 337 337 337 337 337 338 338 338 338 337 337
297 293 295 284 287 287 285 287 288 289 291 293 297 299 295 296 296 296 296 298 301 305 307 307 308 311 309 309 310 317 325 327 330 332 334 336 336 337 336 335 336 337 338 335 332 332 331 332 334 337 333 335 338 341 342 342 343 343 342 342 340 339 339 338 337 338 338 341 337 339 339 339 340 340 339 340 339 339 339 337 336 335 334 335 336 336 336 336 336 337 337 337 337 338 337 337 336
296 294 290 289 288 290 288 289 289 294 289 290 295 298 294 295 297 297 296 298 301 301 305 305 315 312 307 309 312 318 323 325 329 331 334 336 336 336 336 335 336 338 338 335 333 332 330 330 332 331 331 331 332 335 337 338 340 341 341 341 341 340 340 339 339 338 339 340 341 340 339 340 340 341 341 339 338 338 338 337 337 336 336 336 336 336 336 336 336 335 336 336 336 336 336 335 335
296 294 293 290 287 288 286 288 287 290 289 291 292 294 295 296 296 297 298 298 297 301 301 303 315 315 311 315 317 319 323 324 328 331 335 335 336 336 335 335 336 337 337 335 335 335 330 329 329 329 330 332 332 332 333 336 337 339 339 339 340 339 340 339 339 339 339 339 339 339 339 339 340 340 340 340 340 339 338 337 336 335 335 335 335 335 335 335 335 335 334 335 335 335 335 335 334
303 296 290 289 288 287 288 289 290 288 290 290 295 294 295 297 296 297 300 297 295 297 312 312 315 309 306 312 311 319 324 325 327 331 333 335 336 336 335 336 336 336 336 336 336 335 331 328 329 328 329 329 330 329 328 331 333 336 336 336 338 339 339 339 338 335 336 335 334 334 334 334 334 335 337 337 336 336 335 336 336 335 335 335 335 335 334 335 334 334 334 335 335 335 335 335 334
300 295 292 293 288 288 288 289 287 287 291 291 295 293 295 295 295 297 298 297 298 306 310 312 307 305 306 313 312 323 325 325 327 331 333 333 335 335 335 335 335 335 336 335 335 335 334 331 328 327 328 328 327 327 327 327 330 330 333 335 335 336 336 335 333 331 330 328 329 329 328 326 325 325 325 327 332 333 331 328 335 336 335 335 335 334 334 334 334 334 334 335 335 334 334 332 330
299 297 293 286 290 288 289 289 289 288 288 290 294 294 295 294 296 297 302 299 306 308 311 312 307 314 315 313 312 325 325 325 327 330 331 332 333 332 333 333 333 333 334 335 335 334 334 332 328 327 326 327 327 327 327 328 328 329 329 330 331 332 331 332 331 324 322 323 323 324 324 322 319 320 321 320 324 322 325 327 334 335 334 334 334 334 334 334 334 334 333 334 333 333 325 323 321
302 295 288 289 287 289 291 291 291 289 292 293 293 294 295 292 295 301 305 308 306 307 309 309 313 312 314 316 319 326 324 325 328 329 330 330 331 330 330 331 331 330 331 332 334 334 333 332 330 328 327 327 326 328 329 327 327 327 327 325 325 327 326 325 322 319 325 316 320 320 318 319 318 317 320 327 318 320 321 324 327 333 334 333 334 333 333 333 334 334 333 333 333 329 322 315 314
295 291 290 291 289 292 294 292 294 292 293 295 295 292 296 296 297 298 301 301 305 306 309 308 310 312 315 317 322 323 323 325 327 328 328 328 329 328 329 330 330 331 330 332 333 334 333 333 332 331 330 328 326 328 328 327 326 326 324 322 323 324 325 321 319 320 316 316 316 316 317 316 316 318 317 318 318 315 318 321 326 330 332 331 332 334 333 333 333 332 332 331 329 321 317 315 315
297 295 291 290 294 294 294 292 295 294 294 294 294 293 293 296 297 296 299 300 300 301 306 306 308 309 313 318 321 321 323 325 326 326 327 328 329 329 329 329 330 331 331 332 332 334 334 332 332 331 330 329 328 329 329 328 327 323 322 321 323 321 321 319 318 317 317 316 316 317 316 315 316 316 322 325 322 318 316 319 325 326 327 326 327 327 327 328 329 330 327 324 317 313 313 314 313
296 296 293 294 294 295 295 292 294 293 294 296 295 293 294 294 295 297 297 299 298 299 306 308 309 311 315 319 320 320 321 323 324 325 326 327 329 330 330 331 331 332 333 333 332 333 334 332 331 330 331 330 328 329 328 328 328 325 321 321 321 320 321 318 318 318 317 317 316 318 316 316 315 317 317 315 313 313 313 314 315 315 314 316 318 319 318 317 316 312 311 311 310 309 310 312 313
298 296 296 296 293 295 293 291 291 293 292 295 292 295 294 294 295 296 301 296 296 300 302 307 311 316 317 318 319 320 320 322 323 324 325 326 328 329 331 332 333 334 334 332 332 332 333 332 329 328 330 330 330 330 329 328 328 327 325 322 321 320 321 320 319 320 318 319 316 317 316 315 315 317 315 314 314 313 314 314 313 313 314 314 318 317 315 315 314 313 312 312 310 308 309 310 310
294 294 294 294 293 295 294 293 293 293 293 294 293 295 294 294 294 295 300 297 294 295 301 308 315 318 320 321 320 319 319 320 322 323 324 325 327 329 330 331 331 331 332 333 334 333 333 331 329 329 329 330 330 331 330 329 328 326 326 324 322 321 319 321 319 319 321 319 317 316 318 315 315 316 315 314 313 312 313 313 313 312 312 313 317 316 315 314 314 314 312 313 310 310 311 309 308
297 294 292 295 293 295 293 293 292 292 295 296 294 293 295 292 293 292 296 294 291 295 298 312 316 316 320 319 320 320 320 320 322 324 324 325 327 328 329 330 331 332 331 333 333 332 331 331 330 329 328 330 330 329 327 328 328 325 325 325 325 321 320 321 320 321 321 320 319 319 318 318 318 316 316 313 315 312 315 313 313 313 312 313 314 313 313 312 314 312 311 313 313 313 311 312 310
294 294 295 294 294 293 292 290 291 292 293 290 292 294 294 292 292 292 295 297 294 302 311 317 317 318 318 319 319 319 319 319 320 322 323 324 325 326 327 329 329 329 329 331 332 330 331 331 330 330 329 329 330 328 326 326 326 325 323 324 325 323 322 322 322 320 321 320 320 318 317 317 315 317 316 316 313 315 314 313 313 313 313 313 313 312 311 313 312 311 312 312 312 312 311 313 309
294 296 296 293 294 292 291 292 291 292 293 292 294 292 292 291 294 292 296 296 295 305 315 317 317 317 317 318 319 319 319 319 319 320 321 321 320 321 322 324 326 325 328 330 330 330 331 332 330 330 330 330 330 329 326 325 325 325 324 324 324 322 323 323 320 320 322 319 319 318 318 319 318 318 317 314 314 315 314 313 313 313 314 314 313 315 312 311 313 311 310 310 311 311 311 312 308
295 295 295 296 294 293 292 293 292 292 294 292 295 291 293 292 292 291 293 293 304 312 314 315 316 316 317 317 318 319 319 319 320 321 319 318 318 321 321 322 323 326 326 326 328 329 330 331 331 330 330 328 330 329 327 325 325 325 325 325 324 323 324 322 320 323 320 320 321 320 318 318 318 316 316 314 314 314 313 313 315 313 313 315 314 315 311 313 312 312 314 311 311 311 313 312 311
296 295 292 293 292 293 292 292 291 292 295 291 293 292 291 291 292 289 292 294 308 312 313 314 315 316 317 317 318 318 319 320 320 319 319 318 320 320 321 321 322 324 324 326 327 329 329 330 331 331 330 329 328 329 326 325 325 326 325 325 324 324 323 322 321 322 321 320 319 319 318 317 316 316 315 314 315 314 314 313 313 312 315 314 315 315 314 311 312 311 309 308 309 311 313 313 312
296 293 291 290 292 294 294 292 292 292 294 291 290 293 291 292 290 291 290 302 308 312 313 314 314 315 316 317 317 317 318 319 319 320 321 321 321 322 321 322 323 323 325 327 327 326 328 329 331 331 330 328 328 328 327 326 326 326 325 325 325 324 323 322 321 322 322 322 319 318 318 318 316 317 315 316 315 314 313 312 312 313 315 313 312 312 312 310 309 309 310 307 310 313 314 315 314
294 293 291 290 290 289 292 292 292 292 293 290 294 286 287 292 293 291 292 307 307 309 311 313 313 314 315 315 316 317 317 315 318 320 321 322 322 322 322 322 323 324 324 324 325 325 328 330 331 331 329 328 328 328 327 326 325 325 325 325 324 324 323 322 322 321 322 321 321 319 318 318 317 316 315 313 313 314 312 311 312 313 312 311 311 310 311 310 310 308 312 311 313 314 314 315 314
292 290 292 285 286 284 289 293 292 292 292 291 292 287 285 289 292 292 292 306 309 308 310 311 311 311 313 314 315 316 317 318 319 320 321 322 322 322 322 322 322 322 321 322 323 325 325 328 330 331 328 328 327 327 325 326 325 325 324 324 324 324 323 323 322 321 320 321 321 320 319 318 317 317 315 315 312 312 312 312 310 312 311 311 312 312 313 312 311 313 313 314 315 315 314 314 312
289 289 284 285 285 284 287 291 291 293 292 290 292 286 287 288 290 288 290 300 306 306 307 309 309 310 311 312 314 315 316 317 318 319 321 321 322 322 322 322 322 321 322 322 323 324 325 327 328 330 328 328 328 327 326 326 325 324 324 322 324 323 323 323 322 322 321 319 320 321 319 318 318 319 319 318 317 316 316 316 314 312 312 313 315 316 315 316 316 315 315 314 314 315 314 313 310
288 288 280 283 283 286 287 292 289 291 291 292 290 286 285 291 288 287 289 299 303 303 304 306 307 307 309 311 312 313 314 314 315 318 320 321 322 322 322 322 322 322 322 322 322 322 323 325 327 329 328 328 328 328 327 325 325 324 323 323 324 323 323 323 322 323 324 321 320 319 318 320 320 321 322 323 324 322 321 320 319 318 316 317 318 318 317 317 317 317 316 315 313 313 312 312 311
283 283 284 282 285 285 285 286 290 290 291 291 290 288 286 288 287 288 290 296 298 300 300 302 305 305 307 308 309 311 312 313 315 317 319 321 322 322 323 321 322 322 322 322 323 324 324 325 326 328 328 329 329 328 327 326 326 325 324 324 320 323 322 323 323 324 327 327 323 320 319 321 323 324 325 324 322 322 321 322 321 322 322 320 318 318 318 317 317 317 316 315 313 312 310 310 310
281 284 283 283 284 285 287 287 289 291 291 290 289 286 289 290 288 288 290 290 296 299 299 299 300 300 301 301 304 307 310 311 314 317 319 320 321 322 323 321 321 321 323 323 323 324 324 325 325 325 327 328 328 328 326 327 327 327 327 326 324 323 320 320 321 324 327 328 327 326 324 324 324 326 325 324 325 320 320 322 322 320 320 319 317 314 313 314 313 313 313 314 310 309 310 310 311
285 284 284 282 285 284 285 288 288 292 289 288 287 290 291 292 290 288 289 288 291 295 292 291 292 294 295 296 298 301 305 308 313 314 316 319 321 322 322 322 321 322 322 322 322 323 323 324 325 325 325 328 327 326 326 326 326 326 326 325 325 325 325 323 325 326 327 327 329 328 327 326 323 324 325 324 322 322 322 323 322 319 317 315 316 317 316 313 313 313 312 309 311 312 312 312 313
289 286 286 285 286 286 287 287 289 289 289 288 288 290 289 290 290 290 290 288 289 290 291 291 290 291 294 295 296 298 301 306 309 310 312 316 318 320 321 321 320 319 321 321 322 322 323 324 323 324 325 326 326 326 325 326 325 324 326 327 327 326 326 327 327 328 328 328 326 326 327 327 326 324 323 324 324 322 323 323 321 318 315 317 318 319 317 315 311 311 310 310 313 315 317 316 310
288 287 285 285 286 287 289 290 290 288 289 289 287 286 288 289 290 289 289 289 291 291 291 291 291 290 292 294 295 296 299 301 303 304 307 309 315 315 317 318 316 317 318 320 321 322 323 323 324 325 324 325 326 327 326 326 326 327 325 326 326 326 326 326 327 327 329 328 327 326 324 325 325 325 323 324 324 324 324 323 321 321 319 320 319 318 314 312 312 311 312 315 316 316 314 313 313
287 287 287 285 285 286 288 288 289 288 289 287 284 287 289 290 290 289 288 291 292 293 292 294 293 292 291 291 294 295 295 299 301 304 304 308 311 313 315 317 318 320 320 320 321 321 321 322 323 324 324 325 326 326 326 326 325 322 324 318 326 319 323 326 328 327 328 329 328 327 324 325 326 325 325 323 324 324 323 322 321 320 316 318 315 315 315 317 316 316 316 316 317 314 314 315 315
287 285 285 285 286 286 284 287 288 287 286 286 285 285 288 288 286 287 290 291 291 291 292 292 292 293 292 292 293 295 295 298 300 302 303 305 308 311 313 315 317 318 318 318 319 320 321 321 323 323 324 324 325 325 324 325 324 320 319 319 321 323 321 316 323 322 325 326 326 325 323 323 323 325 325 325 325 324 322 322 322 319 322 321 320 319 319 319 317 317 316 315 315 315 313 312 311
287 288 285 285 286 286 285 287 286 287 286 284 283 284 285 285 288 289 291 290 290 291 290 290 291 291 292 291 291 292 295 297 299 300 299 300 304 308 312 315 316 317 318 319 319 321 322 321 322 323 324 324 325 321 322 321 320 316 315 314 314 316 316 316 320 321 322 323 322 322 325 324 324 325 326 326 322 322 322 324 323 322 321 321 320 319 319 319 318 318 317 316 315 314 314 312 311
285 287 288 288 286 288 285 287 288 285 286 287 288 282 280 280 284 288 292 288 289 289 291 292 293 292 290 291 292 292 293 294 298 300 300 300 303 307 308 310 313 315 317 319 320 321 321 321 320 321 322 322 324 322 322 322 322 322 319 321 320 316 319 314 318 319 317 319 323 323 324 324 325 324 325 326 326 324 325 324 324 323 322 320 320 320 319 318 319 318 318 317 315 315 314 313 311
284 285 288 289 289 289 286 286 287 281 281 285 284 283 275 279 284 287 286 285 289 288 288 292 292 292 291 292 293 293 293 293 293 294 294 296 299 303 307 309 311 313 316 317 316 318 319 320 319 320 321 321 322 321 321 320 321 321 322 322 322 321 322 317 313 313 318 314 314 318 319 321 322 323 319 321 323 322 323 322 322 322 321 320 317 318 318 318 317 316 315 314 314 313 313 311 311
284 287 287 290 288 287 286 288 287 279 282 286 283 281 279 280 285 282 280 283 286 287 289 289 291 291 292 292 292 292 293 293 294 295 296 297 300 305 308 310 310 313 313 309 313 313 316 318 318 319 320 319 320 320 320 322 322 320 319 318 317 318 319 319 314 313 309 311 316 317 319 319 320 320 320 319 319 319 318 316 315 314 315 316 314 315 316 314 312 312 312 314 314 314 313 312 311
285 288 289 289 290 289 288 288 284 282 284 282 282 283 282 277 281 282 282 284 284 286 288 290 291 292 292 292 292 292 293 294 294 295 296 296 298 302 306 307 307 304 301 306 309 311 313 314 315 316 318 318 319 319 320 320 321 321 321 319 316 315 315 313 310 311 313 314 315 314 317 317 316 315 315 314 314 314 313 312 310 312 314 314 313 316 315 314 312 308 308 310 309 308 308 310 311
289 290 291 289 288 287 287 285 285 284 282 282 281 282 280 278 279 281 281 283 283 285 288 290 291 293 292 291 291 292 292 293 294 295 295 295 295 296 297 298 297 297 296 297 299 301 306 310 312 314 316 317 318 318 319 319 320 318 319 317 317 312 311 311 314 314 314 315 314 313 313 314 312 311 310 310 310 310 310 310 310 310 310 308 308 311 310 309 307 307 307 305 307 308 309 310 309
293 291 290 287 285 284 281 282 280 282 276 283 281 281 282 279 282 286 285 286 288 289 288 287 287 288 289 291 292 292 293 295 295 295 294 293 293 293 293 298 297 296 296 296 297 300 302 308 311 313 314 315 315 317 317 318 318 318 319 318 317 313 311 313 313 312 312 312 313 311 310 308 308 308 307 306 306 307 306 305 304 302 302 302 303 303 303 303 303 303 303 303 303 302 301 302 302
293 288 285 287 285 282 283 280 281 278 278 277 278 279 279 279 278 282 285 283 283 288 289 290 287 287 289 289 289 291 293 294 294 294 294 294 295 295 294 296 297 297 298 297 296 300 301 304 309 312 309 311 312 315 316 316 317 318 319 319 318 316 314 315 315 313 313 313 311 309 307 307 305 305 305 305 304 303 302 300 299 300 300 301 301 300 301 301 302 306 306 304 303 302 302 301 300
290 288 288 284 278 279 276 278 276 278 277 278 277 278 279 281 282 282 281 284 287 285 287 289 287 287 287 288 290 292 293 293 295 295 294 294 297 297 296 295 296 296 299 297 298 299 299 301 305 310 310 307 311 313 316 315 317 318 319 318 318 317 317 317 316 315 313 312 309 307 307 305 304 304 302 302 300 298 297 299 299 299 299 298 297 299 298 300 301 300 299 299 299 299 300 299 299
287 288 285 283 275 273 274 271 268 269 274 277 280 281 278 279 282 289 289 291 288 286 286 286 286 287 288 289 290 293 293 294 295 295 294 295 295 296 295 296 296 295 297 297 296 298 298 300 302 309 310 306 307 312 314 315 317 317 318 318 317 316 316 315 314 313 311 310 309 307 306 304 303 301 299 298 296 295 296 295 296 296 296 296 296 296 297 297 298 298 297 297 296 295 296 296 296
288 286 289 282 277 271 271 267 274 274 275 275 277 277 273 279 284 284 289 288 283 284 286 287 288 289 289 288 291 291 292 291 291 293 295 295 295 294 296 296 296 296 299 300 299 301 302 303 306 308 307 305 307 311 312 313 314 314 315 315 315 315 314 312 310 310 308 306 305 304 302 301 301 297 296 293 292 295 294 295 294 295 294 295 295 295 295 295 295 295 294 293 293 292 293 294 293
287 286 287 284 284 280 277 273 272 269 273 272 274 276 278 282 283 285 285 285 286 286 288 289 291 291 290 291 292 294 294 294 293 293 293 293 292 292 293 294 295 296 301 302 301 303 305 307 308 309 309 307 307 308 310 312 311 312 311 312 312 311 309 308 305 305 305 305 304 303 300 298 296 294 292 293 291 293 293 293 293 293 293 293 293 293 293 293 292 292 291 291 291 291 291 290 290
287 285 285 285 285 283 277 276 276 275 273 273 272 277 279 280 285 283 283 286 288 286 288 290 291 290 290 291 292 293 294 294 293 294 293 292 291 291 292 292 292 295 302 303 303 305 307 308 309 308 307 307 307 307 308 309 310 309 309 309 307 307 307 307 305 302 301 301 301 299 297 294 293 293 292 290 291 289 291 291 291 290 291 291 291 290 290 290 290 289 289 289 290 288 288 287 289
285 282 285 287 286 285 282 277 269 268 272 274 273 277 278 278 280 282 283 286 288 285 286 286 288 288 290 292 292 293 294 293 292 292 291 292 292 292 291 291 294 299 302 303 303 304 307 309 309 308 307 307 306 306 306 308 308 307 306 307 306 306 305 303 302 299 298 297 295 294 293 293 292 291 292 290 290 289 289 289 289 288 288 288 288 288 288 288 288 287 286 286 285 284 285 283 284
289 287 289 287 281 281 280 277 270 269 269 266 271 275 275 277 282 279 285 285 288 289 286 286 289 290 291 292 292 290 290 290 291 292 292 291 291 292 290 292 293 297 301 303 303 304 305 307 308 308 308 307 306 306 305 305 307 306 305 304 303 301 301 299 298 297 296 295 293 292 292 291 290 289 289 289 288 286 286 285 286 285 285 285 285 285 285 285 285 286 284 284 283 282 284 283 283
289 289 287 287 286 283 279 278 275 276 270 269 271 275 277 279 279 279 286 287 289 287 285 288 291 291 292 292 293 293 292 292 292 292 292 291 291 290 290 291 292 295 298 300 302 304 304 304 305 305 303 303 303 304 304 303 302 302 300 300 300 299 298 297 296 295 294 292 292 291 290 289 289 288 287 286 285 285 285 285 284 284 284 284 285 284 283 283 283 283 283 284 283 283 284 283 283
286 286 283 285 283 285 282 279 275 276 269 267 266 269 274 279 282 284 289 289 289 288 289 290 291 292 291 291 292 293 293 293 292 292 291 290 290 289 289 289 289 289 293 298 301 303 303 302 303 303 303 302 302 302 302 300 300 299 299 298 297 296 295 295 293 292 292 291 290 290 289 287 285 285 285 285 285 285 285 284 285 284 285 284 284 283 282 282 283 283 283 283 284 284 285 283 283
287 286 283 284 282 280 279 280 278 270 273 269 266 273 274 281 283 289 290 291 288 287 288 289 289 290 291 291 291 291 292 292 291 291 290 290 288 288 288 287 287 288 292 296 298 300 300 301 301 301 301 301 300 299 299 298 298 298 298 296 295 294 293 292 291 290 289 288 287 287 285 285 286 283 284 285 285 283 283 284 285 284 284 283 283 283 282 283 284 284 284 284 284 284 284 284 282
Wind_Speed
1 0 1 3 3 2 1 5 1 2 2 1 1 0 2 0 1 1 2 2 1 3 2 2 3 3 1 2 6 7 2 4 3 7 5 0 1 5 6 8 7 6 6 3 3 3 3 6 6 7 11 11 10 10 10 11 12 12 12 12 12 13 14 13 13 12 11 15 14 14 13 13 12 13 14 14 15 15 14 14 14 13 14 14 15 15 14 14 15 15 15 16 16 17 18 16 15
0 3 5 2 1 1 0 2 3 3 5 3 2 1 1 2 1 2 3 2 2 3 1 8 8 10 11 12 8 4 3 4 2 1 1 2 5 4 6 8 8 9 5 3 3 4 4 4 4 10 11 11 11 11 12 12 12 12 12 12 12 13 13 13 12 12 11 13 13 12 13 13 13 13 14 15 15 14 14 14 13 13 14 14 14 14 14 14 14 15 15 15 16 17 17 17 15
0 5 5 3 2 3 1 4 2 1 1 1 2 4 1 3 4 2 4 3 5 5 4 6 6 4 3 2 5 1 1 3 5 1 3 7 9 5 6 6 6 7 6 3 4 4 3 3 3 10 12 11 11 12 13 13 13 12 11 11 12 12 12 12 13 12 11 11 13 15 14 12 11 12 12 12 13 14 14 14 13 13 13 14 14 14 14 13 13 14 14 14 16 17 17 17 15
3 2 5 2 1 4 1 3 4 3 1 3 2 2 1 5 4 4 2 5 7 5 1 2 5 2 3 8 2 1 3 2 2 3 5 6 2 8 6 6 6 5 4 4 4 3 2 3 5 8 11 12 12 12 12 13 13 13 12 12 12 11 12 12 11 11 10 11 14 12 11 13 12 13 14 15 16 15 12 13 13 13 13 13 13 13 13 13 13 13 13 13 15 16 16 17 16
3 2 2 3 3 1 1 0 3 3 2 4 2 3 3 3 5 4 3 1 3 1 0 1 4 3 1 5 1 1 2 2 1 1 2 2 7 6 7 6 6 5 4 3 3 3 2 6 5 8 10 12 12 13 13 13 13 12 12 12 11 11 10 10 11 12 10 10 12 12 12 12 12 12 12 13 13 13 13 13 12 12 13 12 12 13 13 12 12 12 12 13 14 15 16 16 16
5 1 2 1 0 2 4 1 0 2 6 6 0 3 4 5 7 6 2 1 2 0 1 3 4 3 3 2 1 3 3 3 3 1 2 5 8 8 8 6 6 5 4 3 3 3 3 5 6 9 10 10 12 13 13 13 13 12 12 12 11 11 10 11 11 11 11 11 12 11 12 12 12 12 12 12 13 12 11 11 11 13 11 12 13 12 12 12 11 10 11 11 13 15 15 15 16
0 3 5 4 2 4 3 1 3 3 7 6 3 3 8 5 4 4 3 2 0 3 2 3 4 5 4 1 2 1 2 2 3 3 3 7 9 9 7 6 6 5 4 3 3 3 3 5 7 9 9 10 12 12 12 13 13 12 12 12 12 12 11 11 12 11 10 10 10 12 12 11 12 12 13 12 12 12 12 12 12 12 13 12 11 12 12 12 11 10 10 11 12 14 14 14 15
2 2 1 2 1 2 1 0 4 5 2 6 2 8 6 7 4 4 5 2 3 2 1 2 1 5 1 3 2 2 3 1 4 8 10 9 9 8 7 6 7 5 4 3 3 2 4 6 8 8 9 9 11 12 12 12 12 12 12 12 12 11 10 11 11 11 10 10 11 11 12 11 12 13 12 12 13 13 12 12 12 12 11 11 11 11 11 11 11 11 10 10 11 12 13 13 14
4 6 1 4 1 3 2 2 3 2 5 1 2 3 4 4 5 4 2 0 1 2 5 2 1 4 2 2 1 3 2 2 9 12 10 10 10 8 6 7 8 6 4 3 3 2 3 6 8 8 8 10 12 12 13 13 12 11 12 12 12 11 10 9 10 12 11 9 9 12 11 10 11 12 12 12 12 12 10 10 10 10 11 11 10 10 10 11 11 10 9 10 10 12 12 12 13
2 2 1 2 3 1 2 4 1 1 2 1 4 5 5 4 4 1 4 3 3 5 0 0 1 3 3 3 1 1 1 3 10 10 9 10 10 8 8 7 7 9 6 3 3 3 2 5 8 8 8 8 10 10 12 13 13 13 12 12 12 11 11 9 10 10 9 9 7 10 11 12 11 11 12 12 12 11 10 10 10 10 11 10 9 9 9 9 10 9 9 9 10 11 12 12 12
0 5 2 3 2 0 1 3 3 4 0 3 1 1 2 3 4 3 0 4 1 3 1 1 5 5 3 1 2 3 1 6 13 12 9 9 9 9 8 6 6 6 7 5 3 3 3 3 7 8 8 9 10 11 11 13 14 13 13 12 12 12 11 10 10 9 10 10 9 9 10 9 9 9 10 10 10 12 12 11 10 10 9 9 10 9 9 9 9 9 8 8 10 11 11 11 11
1 1 2 3 1 4 3 2 2 3 3 1 2 1 2 4 2 3 2 7 1 3 3 4 4 5 4 1 1 2 4 5 9 11 9 8 8 8 8 6 6 6 6 5 3 3 3 3 3 6 8 9 9 11 10 10 12 12 11 12 11 11 11 11 10 9 9 9 6 11 11 10 10 10 9 11 11 11 11 10 10 9 9 9 8 8 8 8 9 8 8 9 9 10 10 11 10
3 2 6 3 1 0 1 0 1 2 2 2 4 1 3 3 5 6 4 4 3 4 1 4 9 4 3 3 3 0 5 6 5 10 10 8 7 7 6 7 6 7 6 4 4 3 3 3 3 3 6 10 10 10 10 10 9 9 11 11 10 9 10 10 10 9 9 8 10 10 11 10 11 11 11 9 10 10 10 10 10 9 9 8 8 8 8 8 8 8 8 8 9 9 10 10 9
3 5 6 2 1 1 2 1 1 2 3 2 2 1 4 3 4 5 8 6 4 4 1 6 5 5 2 2 1 4 7 5 6 8 8 8 7 7 7 6 7 7 6 5 5 4 3 2 3 3 4 6 5 8 9 10 9 9 10 9 8 8 8 9 9 9 8 8 8 9 8 8 9 9 10 11 12 12 10 9 9 8 8 8 7 7 7 7 7 7 7 7 7 8 8 8 8
0 2 4 3 1 1 2 3 7 5 5 3 3 6 2 3 3 4 8 9 5 1 0 1 3 3 5 8 4 9 9 7 7 7 8 8 9 8 8 6 8 7 6 5 6 5 3 2 3 3 3 4 5 4 4 6 9 9 10 9 8 7 9 8 7 8 7 6 7 8 8 9 9 9 9 8 9 9 8 7 8 8 7 7 7 6 6 6 6 6 6 6 6 7 7 7 8
3 4 3 2 1 2 3 1 2 3 5 4 1 6 5 2 1 5 2 2 1 2 3 4 1 1 3 10 6 14 10 8 7 8 9 9 9 8 8 8 8 7 5 6 7 5 4 3 2 3 3 4 4 4 4 4 7 9 10 9 8 8 9 8 7 7 7 7 7 8 8 7 6 6 8 5 7 7 6 5 5 6 7 6 6 5 5 5 5 6 5 5 6 6 7 7 7
2 3 1 3 2 2 3 3 5 4 3 4 0 6 6 3 1 0 0 1 8 5 0 0 2 1 6 5 3 12 9 8 8 9 9 8 7 8 7 7 6 7 5 6 4 6 5 4 3 3 3 4 4 4 4 4 4 7 7 9 9 8 8 7 6 7 6 6 6 6 6 4 4 3 4 3 5 4 5 6 5 6 6 5 4 5 5 5 5 5 4 5 5 5 6 6 6
1 0 4 1 3 3 5 5 8 2 5 5 4 7 8 4 1 1 3 6 3 1 1 3 2 2 3 1 4 11 10 11 10 13 10 9 8 8 8 7 7 7 6 6 5 5 5 4 3 3 4 4 4 4 3 4 4 5 4 4 4 5 6 6 5 3 4 3 5 4 3 3 3 3 3 4 3 2 3 4 5 5 5 4 4 4 4 4 4 3 4 4 5 6 7 3 4
1 1 2 6 4 6 6 4 6 3 4 7 7 5 8 8 9 3 4 1 2 2 1 2 1 3 3 3 9 12 11 11 12 12 14 14 12 12 8 6 7 8 7 6 6 7 5 4 3 5 4 4 4 4 3 4 4 4 3 3 3 4 4 4 3 3 3 3 2 3 2 2 2 1 2 2 2 2 2 2 3 3 4 3 3 3 3 2 2 2 3 4 6 5 3 3 3
1 3 3 5 7 4 5 4 5 5 2 5 6 5 2 6 5 2 4 6 1 7 5 1 3 2 4 7 10 11 11 11 11 13 13 16 12 12 12 11 9 9 8 7 6 5 6 5 5 4 5 5 5 4 4 3 4 3 4 3 4 3 3 3 3 3 3 3 3 3 2 2 2 1 1 3 3 1 1 1 1 3 3 3 3 3 4 4 5 5 5 5 4 2 2 2 3
1 1 3 4 3 2 4 7 7 5 5 6 6 2 3 3 3 5 5 6 5 6 6 10 12 8 9 12 12 11 11 12 10 11 12 14 13 10 10 11 9 8 7 7 6 7 8 6 5 5 5 5 5 5 5 4 4 3 3 4 4 4 4 3 3 3 3 3 3 3 2 2 2 1 1 1 1 1 1 0 1 1 1 1 4 1 2 2 3 3 3 3 2 2 3 3 3
1 5 4 1 1 1 6 6 4 5 5 6 3 10 7 3 1 4 12 10 8 10 9 6 4 13 14 15 13 10 12 12 11 11 13 13 14 12 8 6 3 4 5 7 8 7 8 7 6 5 5 6 5 5 6 5 5 4 4 4 4 3 4 4 3 3 3 4 3 3 2 2 1 1 1 0 0 0 1 1 0 1 1 0 2 1 1 2 2 2 3 4 4 2 2 3 3
3 4 3 4 3 2 1 1 3 5 5 8 8 6 5 6 2 4 12 10 3 4 4 8 8 13 17 15 14 12 12 13 13 13 13 13 13 11 10 9 8 8 7 8 7 6 7 6 6 6 7 6 6 5 5 6 5 5 4 4 4 4 3 4 4 4 4 3 3 3 3 2 2 2 2 1 3 1 2 1 2 0 1 1 1 1 2 2 2 2 3 4 4 4 4 4 3
2 5 2 5 2 5 2 1 1 4 11 10 3 4 7 5 6 2 6 5 3 4 3 7 5 4 7 13 14 17 16 15 15 13 12 14 13 13 12 11 9 7 7 8 7 7 7 8 7 6 7 7 6 5 5 5 5 5 5 4 4 5 4 5 5 5 4 4 3 4 4 4 5 5 4 3 4 2 3 2 1 1 1 2 0 0 2 3 4 3 3 5 5 5 4 5 5
3 5 3 4 0 4 3 1 1 1 2 3 5 7 7 5 4 4 7 9 2 2 6 9 8 8 8 12 14 12 12 10 10 10 7 7 9 10 9 9 9 8 9 9 8 7 8 8 7 8 7 7 6 6 5 5 4 4 4 5 5 5 5 5 5 4 4 4 3 4 4 4 3 4 4 4 2 4 2 2 2 2 1 3 1 1 1 3 3 3 3 3 4 5 4 5 4
3 7 1 3 3 4 3 1 1 3 2 4 6 4 0 1 1 3 9 6 0 2 6 10 9 10 10 11 13 13 13 13 10 10 12 7 5 7 8 8 8 9 10 9 8 8 7 7 9 10 9 9 7 6 6 5 5 6 5 6 6 5 5 6 4 4 5 4 4 4 5 5 5 5 5 3 4 4 3 2 2 3 3 2 1 3 3 2 5 3 3 3 5 5 5 4 3
3 5 3 6 4 2 2 0 1 1 1 3 7 2 2 1 2 6 3 3 4 6 7 7 12 13 12 10 11 11 13 14 13 9 6 6 7 10 9 8 9 10 9 9 8 8 7 8 9 9 9 8 7 7 7 7 6 6 6 6 5 6 6 5 4 5 3 3 4 4 4 4 4 4 4 4 3 3 2 2 3 2 3 4 3 4 2 4 3 4 4 3 4 4 5 4 3
10 6 4 2 5 1 1 1 1 1 0 1 6 2 1 2 1 6 4 3 6 11 8 9 10 12 12 10 11 10 11 11 8 9 14 12 12 10 10 10 10 9 9 10 9 8 8 10 10 9 9 9 8 8 7 7 7 7 6 5 6 6 5 5 5 5 4 4 3 3 3 4 3 4 3 3 3 3 3 3 2 2 5 4 4 5 4 3 3 3 3 3 3 3 4 4 3
9 5 7 5 3 4 2 3 1 0 2 4 3 3 1 1 6 5 2 4 5 8 11 10 10 10 10 9 8 8 11 9 8 10 13 11 8 8 11 9 11 10 8 10 10 8 10 10 10 10 9 8 9 9 8 7 7 6 6 6 6 6 5 5 5 5 5 5 3 3 3 3 3 4 5 4 4 3 3 2 2 3 4 3 2 3 3 2 2 3 4 2 3 2 3 5 2
7 2 3 5 3 4 5 1 0 2 1 4 2 5 7 10 10 3 1 7 5 5 7 9 8 8 8 8 9 9 5 5 9 12 10 10 9 9 11 9 10 10 9 6 7 9 8 6 7 7 8 9 10 8 7 7 7 7 6 6 6 6 5 5 6 5 5 5 5 4 4 3 4 3 4 3 3 3 2 2 3 3 3 2 1 1 3 2 3 3 5 3 4 4 4 5 4
4 5 1 3 2 5 2 3 2 5 1 4 1 6 7 7 9 4 3 6 11 9 8 9 7 7 7 8 8 9 9 9 12 11 10 10 8 8 9 8 8 8 6 6 9 9 8 7 7 6 8 9 9 8 8 8 7 7 6 6 6 6 6 6 5 5 5 5 5 5 4 4 3 4 3 4 2 3 2 1 2 4 2 2 3 3 3 3 3 5 3 3 4 4 4 5 4
3 1 5 1 5 5 5 1 5 8 0 2 4 4 8 6 8 4 4 5 6 9 8 8 7 7 7 7 8 8 9 8 7 8 9 9 8 8 9 10 8 7 8 8 7 7 8 7 7 8 8 9 9 9 8 8 7 6 6 5 5 5 6 6 5 5 5 4 5 5 4 4 3 3 4 4 4 3 3 1 2 2 2 1 2 0 0 3 3 3 3 3 4 5 5 6 5
2 6 3 3 2 5 3 3 3 2 2 1 5 6 2 7 5 3 4 8 7 7 7 7 8 8 7 7 8 8 7 7 7 9 10 10 9 8 8 8 9 9 7 7 8 7 8 8 9 9 10 11 10 9 7 6 6 5 5 5 6 5 6 6 5 5 4 4 4 4 4 4 4 4 4 3 3 3 3 2 2 2 1 1 3 2 3 3 3 3 4 3 3 5 5 7 6
5 1 4 3 6 2 3 4 2 1 3 5 2 2 5 3 3 2 2 7 8 7 8 8 9 8 8 7 7 8 8 8 11 12 13 11 10 9 8 8 7 7 8 9 9 10 10 9 9 10 9 10 10 9 8 7 6 6 5 5 4 5 5 5 5 5 5 4 3 3 3 3 3 4 4 4 4 2 1 2 3 3 3 3 1 0 4 2 3 3 5 5 5 4 5 4 6
2 2 3 3 1 4 5 4 4 5 2 5 3 5 10 9 4 2 4 3 8 11 11 10 10 9 8 7 8 9 9 10 13 12 12 12 11 9 8 7 7 7 7 9 8 8 8 9 8 9 9 9 8 7 7 6 5 5 5 5 4 4 3 3 3 4 4 4 5 4 4 4 3 3 4 5 4 4 3 4 4 3 1 1 1 2 3 3 3 3 4 6 2 2 4 5 6
3 6 5 3 6 5 3 4 2 7 5 6 6 10 12 12 6 3 3 4 6 9 4 3 5 5 5 7 8 8 9 12 12 9 8 9 10 9 9 7 7 7 7 7 8 8 9 8 8 8 8 9 7 6 6 6 5 6 6 3 4 4 4 3 3 4 3 4 4 7 6 4 4 5 4 4 3 5 5 5 6 5 2 1 1 3 4 4 5 4 4 3 6 4 5 6 5
9 3 3 7 6 4 3 3 2 1 3 8 7 8 8 8 7 5 3 2 4 6 7 7 6 7 8 8 9 10 10 14 9 7 7 9 10 10 8 7 7 6 7 8 9 9 10 11 9 10 8 7 8 8 7 7 7 5 5 7 7 5 5 4 4 4 4 4 3 3 3 5 6 6 6 5 6 5 4 3 2 1 1 2 4 5 4 5 3 2 2 2 4 6 5 4 2
9 7 5 8 6 8 4 3 1 2 4 5 4 4 8 11 8 4 0 4 10 11 10 9 9 8 8 10 11 11 13 5 2 5 7 6 8 8 7 7 6 8 8 8 11 12 11 10 11 11 8 9 9 10 9 8 7 7 6 6 4 4 4 4 4 3 5 4 3 3 3 2 2 3 4 3 5 5 5 3 3 4 4 4 4 5 4 3 3 2 2 4 3 4 4 2 2
6 7 5 4 8 2 2 1 1 2 2 8 0 5 10 12 9 1 4 8 7 7 10 13 13 11 10 9 10 11 6 9 6 8 6 7 9 9 8 8 8 11 10 11 10 9 10 11 10 9 9 10 9 9 8 9 5 4 5 4 6 2 1 3 4 4 5 5 4 4 3 3 4 4 3 4 3 3 3 3 6 6 3 2 3 4 4 5 3 4 3 3 5 2 3 3 3
8 5 3 8 2 6 6 1 0 2 2 2 1 4 9 7 4 6 8 8 6 6 7 10 6 10 12 13 13 12 12 10 10 11 11 9 8 9 8 9 10 9 8 8 9 11 10 10 9 9 10 9 9 9 9 6 6 5 4 4 5 5 4 2 1 0 1 1 3 3 2 3 3 4 3 4 5 4 5 6 5 3 3 3 3 3 3 4 3 3 3 2 2 5 2 3 1
5 6 4 3 3 5 4 5 2 0 1 3 3 2 7 5 6 5 7 6 5 5 5 6 8 8 7 4 4 6 11 11 12 10 7 7 8 10 11 11 9 10 10 11 10 11 9 12 11 11 10 10 8 8 8 6 5 4 4 4 4 4 3 2 1 2 1 1 1 1 4 3 4 4 4 4 3 2 2 2 2 2 2 1 1 2 2 3 2 2 1 1 1 2 3 2 2
6 6 9 7 3 6 1 2 6 1 3 3 1 1 6 5 6 10 9 1 4 5 6 10 11 8 7 9 11 7 8 6 10 12 11 10 10 8 7 7 9 10 11 11 10 11 10 9 8 8 7 7 9 8 8 7 8 8 6 6 5 3 4 3 4 4 3 2 3 1 1 2 3 3 2 2 3 1 0 1 1 1 1 2 1 1 1 3 5 4 4 1 1 0 1 3 2
6 7 9 8 6 3 4 6 5 4 6 3 1 8 6 4 5 7 5 2 9 3 4 11 9 8 7 12 10 9 10 9 7 7 5 5 7 6 8 9 10 10 11 9 8 8 9 8 8 9 8 7 7 7 8 8 7 7 9 9 8 8 7 3 2 2 4 3 1 2 1 0 2 2 2 2 4 4 6 4 4 4 3 4 4 3 4 3 4 3 2 3 3 4 3 0 3
9 2 4 9 6 5 6 7 8 3 1 1 1 3 5 6 8 3 2 2 7 7 10 11 10 10 11 11 10 9 10 8 9 11 10 8 8 11 13 13 11 12 9 6 7 6 8 9 8 9 8 8 7 7 8 9 9 7 7 6 6 6 7 7 6 4 2 3 4 4 3 3 4 3 5 5 3 2 5 5 3 3 3 3 2 2 4 3 3 2 2 3 4 4 2 3 1
4 1 6 6 9 9 8 6 5 1 2 7 2 1 1 6 7 3 0 3 6 8 12 13 13 12 13 10 10 11 10 8 8 9 10 10 11 10 9 9 7 5 4 7 7 7 6 5 6 6 7 7 7 9 10 9 8 9 8 7 6 5 5 4 3 3 5 4 6 3 5 5 5 5 5 4 3 5 5 5 3 3 4 3 2 4 4 3 3 3 3 4 3 2 2 2 2
4 3 4 4 5 4 3 5 5 1 1 10 7 5 5 7 5 4 1 1 6 8 10 12 14 15 11 10 10 9 6 6 6 8 7 7 6 5 4 1 2 5 4 3 3 4 5 5 6 7 7 7 7 8 9 9 8 8 8 7 8 6 4 4 4 6 5 5 6 5 5 5 4 5 5 5 6 5 5 5 5 5 5 4 4 3 3 4 4 4 4 4 4 4 3 3 3
4 4 5 4 5 3 3 4 3 3 6 13 6 8 6 7 6 9 7 8 9 10 8 6 6 7 9 11 11 9 8 7 7 7 5 5 2 4 3 6 5 2 2 2 4 4 5 6 6 7 8 6 6 8 9 9 8 8 8 8 9 8 6 7 6 5 4 4 6 4 5 4 4 5 4 4 5 5 6 5 5 4 3 4 5 4 4 3 3 4 4 4 4 4 3 4 4
9 2 4 4 2 3 2 1 1 5 11 2 1 5 3 11 4 5 7 3 4 7 9 10 6 6 8 7 7 7 6 6 5 5 5 3 3 2 2 5 5 4 2 3 3 2 4 5 6 7 5 7 6 7 8 9 9 9 8 9 10 9 10 8 9 9 8 7 6 6 4 5 5 4 3 4 5 5 4 4 4 4 4 4 5 3 4 3 4 4 4 4 4 4 5 6 5
4 3 6 9 3 2 3 1 5 11 9 0 1 2 1 13 6 6 5 7 7 7 7 7 6 7 6 7 8 6 5 4 6 5 4 4 5 6 5 5 3 3 5 3 3 2 3 4 5 7 7 5 7 7 8 8 8 9 8 9 8 9 10 10 9 9 8 8 7 7 6 6 5 4 3 5 3 3 3 4 4 4 4 4 3 4 4 4 5 5 5 5 5 5 4 5 5
7 10 8 10 5 4 7 4 2 4 5 3 0 0 5 2 7 13 13 14 8 6 8 6 6 8 7 6 5 5 5 5 5 5 5 5 5 5 5 5 4 3 2 3 2 1 2 4 4 6 6 5 5 7 8 8 9 9 8 9 8 8 8 8 8 9 7 6 6 7 6 6 5 5 4 4 3 4 4 4 4 5 4 4 4 4 5 4 5 6 5 5 5 3 4 5 4
10 1 8 7 5 5 6 4 9 8 6 1 3 3 7 6 8 2 10 7 4 5 5 5 7 8 8 5 4 4 4 5 4 5 6 6 5 4 5 5 4 3 3 2 2 2 2 3 5 6 6 4 6 7 7 8 7 7 6 7 8 8 8 7 5 7 8 8 6 7 6 5 6 5 5 4 3 5 4 5 4 5 4 4 4 5 5 5 5 6 5 4 4 3 4 5 5
7 3 3 5 10 6 3 5 4 2 2 1 1 6 3 5 2 6 4 6 6 3 4 2 5 3 2 3 5 7 6 5 5 5 5 4 4 3 2 3 3 3 3 3 3 3 3 4 4 6 8 7 6 7 6 8 7 7 7 8 8 8 8 7 6 5 5 6 7 8 6 5 5 5 4 5 3 5 5 5 5 5 4 5 5 5 5 5 5 6 4 4 5 3 5 6 4
4 4 11 6 2 8 6 3 0 2 3 6 3 5 5 8 8 3 4 3 7 4 4 2 5 3 1 5 5 5 6 5 5 6 5 4 2 2 3 3 3 3 3 4 4 4 4 5 5 6 5 5 6 6 7 7 8 8 7 8 9 9 9 10 9 8 7 6 7 7 7 5 5 5 5 4 5 4 4 5 6 5 5 5 5 5 5 5 5 5 5 5 5 4 5 5 4
5 7 7 1 2 4 4 5 2 1 5 6 3 7 2 2 7 3 3 2 9 6 6 5 3 3 5 7 5 6 7 6 4 4 3 4 4 4 3 2 3 4 5 4 5 4 4 5 6 8 7 8 5 6 7 8 9 8 8 8 7 8 9 8 8 9 7 8 6 7 6 6 5 5 5 4 5 5 4 5 6 5 5 5 5 5 5 4 5 5 5 5 3 3 4 3 4
4 5 2 8 4 6 1 4 2 2 3 4 1 2 4 5 7 3 3 5 9 12 6 3 6 6 9 6 5 5 3 3 4 5 4 4 4 4 4 4 3 3 4 5 5 5 3 4 5 6 8 7 8 6 6 5 7 7 7 8 9 8 7 7 6 8 7 8 8 7 6 6 6 5 6 5 6 5 5 5 5 6 5 5 5 5 4 5 5 6 4 4 3 3 5 5 4
2 0 2 1 2 3 4 6 3 4 4 0 6 1 5 6 6 6 6 9 12 5 1 9 10 9 7 7 7 8 7 6 5 5 4 4 4 4 4 5 5 5 5 4 5 5 4 4 5 6 6 6 6 7 7 8 6 7 8 7 6 7 7 8 8 9 8 7 7 7 7 6 6 5 5 5 5 6 5 6 5 5 5 5 6 5 5 4 5 5 4 5 4 4 5 5 5
1 2 4 2 0 2 3 2 4 4 5 5 2 2 5 7 8 8 11 11 11 9 10 9 10 9 8 6 7 7 7 6 6 5 5 4 4 3 2 1 1 2 2 4 5 6 6 4 5 7 9 7 7 7 7 7 7 7 9 9 8 8 8 8 8 7 8 7 6 7 6 6 5 5 5 6 6 6 5 5 6 5 6 5 5 5 4 4 5 4 4 4 4 5 5 5 5
4 6 6 6 4 3 6 10 3 2 2 4 4 8 5 9 4 12 15 13 1 4 6 7 6 6 7 7 7 7 7 6 5 5 5 5 4 3 2 2 2 3 4 5 4 5 6 6 6 6 7 7 7 6 7 7 6 7 8 8 8 7 8 7 8 7 8 7 6 6 6 6 6 4 4 6 6 5 5 6 7 6 5 5 5 4 3 4 5 5 5 4 5 6 6 5 4
Wind_Direction
271 80 138 103 69 103 77 359 133 313 49 242 360 16 185 54 214 61 171 342 67 325 316 58 54 38 186 197 144 125 79 139 201 134 211 231 141 117 121 121 120 114 116 115 99 80 89 99 110 123 126 122 119 121 118 116 114 109 106 106 109 106 100 99 96 93 92 95 93 90 92 90 89 88 80 84 84 78 77 78 79 82 80 80 83 82 81 87 91 88 86 81 73 66 62 70 77
115 82 72 79 104 59 262 119 96 351 44 29 254 93 233 291 88 202 193 186 193 138 217 93 84 83 77 92 113 125 49 30 170 185 83 119 103 100 129 129 131 124 118 114 103 98 92 104 131 138 123 120 119 119 118 117 111 109 107 105 102 100 100 101 97 93 94 93 92 97 91 84 87 91 93 91 89 84 82 83 83 79 80 82 82 83 86 88 95 91 86 81 72 63 62 66 75
307 89 69 29 27 72 84 35 305 67 69 309 275 213 328 124 177 204 226 166 145 149 160 100 104 83 56 55 38 43 223 66 102 125 106 129 130 146 131 122 121 116 117 114 103 100 106 119 120 127 120 121 120 116 114 114 112 107 108 106 99 97 98 97 100 98 91 93 96 90 88 88 87 87 87 84 82 83 83 78 74 73 77 80 80 82 85 90 94 95 87 80 73 63 62 66 74
91 44 133 94 269 29 60 25 90 123 251 210 299 277 192 170 205 204 217 166 155 147 212 15 50 284 106 65 125 99 65 75 351 139 130 152 101 137 127 118 109 103 97 103 109 108 111 119 104 108 122 120 116 113 114 113 111 109 104 100 102 106 108 105 104 101 99 103 103 98 97 97 97 91 86 84 84 83 78 81 82 89 88 86 87 86 86 88 95 95 89 77 71 64 59 61 67
80 71 98 116 105 7 96 127 141 91 277 198 183 274 252 202 167 180 192 241 229 245 224 129 71 340 94 121 120 129 207 94 43 5 85 46 116 127 127 118 110 105 106 108 110 115 128 124 122 126 122 112 110 111 113 115 112 111 111 103 103 98 95 99 103 103 101 101 98 101 104 100 101 96 89 89 85 88 95 96 92 84 74 80 87 87 90 92 96 102 92 79 72 63 58 57 64
60 46 347 93 359 165 54 37 347 198 220 151 134 239 215 197 163 181 173 256 264 213 151 71 156 185 27 356 176 112 178 136 171 79 115 143 134 130 129 122 110 106 110 102 108 115 131 129 122 125 123 113 112 112 112 116 117 113 107 108 106 105 104 104 104 106 107 102 99 107 103 104 99 96 96 93 94 93 91 90 94 98 98 90 82 84 86 86 91 97 100 84 72 62 56 56 58
345 47 354 32 27 54 170 138 238 206 274 164 199 199 186 199 196 135 164 137 352 48 346 131 132 93 73 319 23 93 226 180 118 174 134 141 129 129 130 121 113 113 117 116 110 115 138 127 120 126 124 119 116 115 117 120 119 114 113 110 109 108 110 113 110 108 115 118 111 105 106 108 106 101 100 98 94 91 87 85 83 85 85 87 88 86 91 96 97 100 105 92 73 64 57 58 59
65 133 318 102 234 38 58 192 243 160 267 168 237 159 197 186 157 150 184 109 204 100 12 106 74 96 249 20 162 266 358 226 138 117 124 132 130 131 128 124 119 122 117 117 119 138 139 126 114 107 114 119 115 115 115 115 121 119 116 113 111 113 119 118 119 119 111 103 108 111 105 100 98 100 101 101 94 89 87 85 83 86 88 87 88 87 84 85 85 90 94 88 77 64 59 59 60
1 88 285 80 74 37 48 269 276 228 282 287 272 309 164 163 151 142 142 268 82 108 156 199 184 83 237 42 99 274 330 81 117 125 132 134 136 137 128 131 134 132 127 127 132 128 120 126 116 113 108 115 125 121 119 124 124 118 116 118 116 114 114 115 115 113 110 107 112 111 101 105 107 108 107 104 102 98 91 87 92 90 89 89 87 89 89 86 89 94 97 89 74 63 58 58 60
29 53 301 129 127 252 2 301 57 234 233 244 181 180 165 175 170 160 151 110 157 124 186 60 125 113 149 106 357 15 65 130 118 119 136 141 137 131 130 137 141 139 138 140 134 127 135 123 117 114 108 94 102 119 121 120 123 119 113 116 115 114 116 118 113 108 109 120 121 117 119 103 102 115 116 113 109 107 103 98 90 86 85 85 88 87 82 83 83 84 87 83 68 62 58 56 57
12 15 144 79 29 100 177 268 269 309 286 328 292 256 202 119 137 134 297 134 44 149 173 166 47 119 95 261 208 252 240 152 131 144 150 144 137 135 129 131 133 138 142 142 136 126 125 120 115 108 103 104 105 115 121 124 124 123 122 118 119 119 118 116 113 112 125 130 133 122 122 120 109 108 117 108 108 110 108 101 97 92 90 92 93 89 90 90 85 78 79 72 61 60 58 56 54
31 39 22 102 189 162 235 191 283 276 303 357 213 144 189 148 116 127 142 124 161 127 178 148 176 142 61 48 310 3 130 179 150 145 146 143 137 136 130 129 131 132 136 133 125 119 117 117 113 112 105 105 106 105 116 125 125 125 125 124 122 122 121 120 118 116 103 71 94 113 100 96 89 86 105 116 114 110 107 104 102 99 102 97 93 90 83 78 79 78 70 58 55 55 56 55 52
111 112 81 93 215 166 193 156 258 314 345 269 179 219 125 117 186 176 159 97 142 127 269 221 134 80 117 162 257 359 165 202 164 146 145 145 138 129 123 127 131 133 139 128 126 126 122 126 118 106 110 105 104 108 108 106 104 109 121 123 120 115 122 124 122 116 112 100 82 93 95 91 81 82 89 109 114 109 103 100 101 101 104 104 99 97 88 90 88 79 68 58 52 51 53 53 50
119 185 124 174 53 122 140 200 349 165 261 244 257 109 158 143 255 175 127 122 202 169 256 164 128 127 75 77 196 172 205 196 165 148 144 136 129 128 129 130 132 139 143 141 140 140 138 130 114 114 110 102 105 105 106 107 107 107 109 107 109 118 120 120 112 107 100 89 83 89 92 88 85 81 84 87 86 87 92 93 92 89 91 93 95 88 93 86 80 75 65 57 50 45 47 49 46
14 144 83 115 81 68 229 128 201 166 230 182 198 134 172 267 122 175 154 147 229 214 354 39 181 100 217 160 233 202 187 188 163 148 138 131 128 131 133 136 140 143 142 147 150 147 149 134 127 115 104 104 104 99 98 107 111 114 116 115 111 106 108 111 105 105 101 86 88 95 91 86 82 80 78 79 85 86 86 89 99 101 102 101 99 95 93 91 83 72 63 52 42 38 33 34 28
134 79 79 121 226 165 268 152 36 96 244 181 178 138 128 332 196 140 246 137 163 342 141 190 116 193 175 173 206 178 170 159 158 142 134 134 130 128 136 143 150 153 147 150 163 161 143 146 144 123 115 112 107 105 103 101 111 118 124 122 118 112 114 118 116 110 102 100 100 100 96 88 82 81 82 74 90 92 94 99 102 104 108 109 106 105 100 93 79 69 55 44 31 27 23 19 14
73 79 45 49 227 156 256 150 145 202 238 236 237 155 161 208 245 166 252 80 125 168 35 320 189 52 177 197 225 150 145 142 138 137 136 138 132 133 142 151 152 157 163 167 162 168 161 162 160 139 134 119 116 112 104 98 100 110 118 126 127 125 126 127 118 108 102 97 98 99 96 95 99 94 80 85 75 79 93 94 93 98 105 103 105 108 96 87 75 60 47 31 24 27 24 13 3
44 155 114 166 198 148 213 173 190 213 140 212 190 198 140 164 189 185 52 40 46 14 69 314 346 340 226 258 173 134 133 141 150 146 153 142 144 147 153 161 161 171 172 180 181 170 171 181 171 150 137 130 122 117 111 115 109 100 110 120 126 131 130 124 123 122 108 99 100 91 94 104 103 102 102 95 90 72 61 93 104 111 108 106 106 107 96 76 74 52 35 14 16 32 18 13 352
100 100 110 222 177 237 159 202 195 133 224 180 187 187 171 189 141 211 122 226 154 125 296 2 344 354 47 99 139 127 143 148 158 160 159 156 160 167 163 154 172 166 176 178 187 185 190 182 174 159 150 145 131 124 126 130 131 126 123 125 128 136 143 138 140 123 123 127 118 112 107 101 102 110 128 125 117 64 101 145 125 114 117 109 106 103 101 95 36 47 10 16 21 12 10 355 344
229 125 251 249 209 238 216 184 202 198 126 150 186 208 190 190 147 144 162 174 222 189 178 329 187 188 156 149 141 140 150 158 165 162 167 165 163 168 172 176 178 179 175 175 176 178 178 190 183 170 162 158 146 142 142 145 146 145 143 140 143 149 150 158 150 138 146 150 154 146 136 125 104 83 15 127 113 97 104 201 85 94 102 107 88 49 14 15 13 13 25 16 360 14 5 341 343
277 113 194 237 202 201 258 196 230 205 162 186 172 98 144 202 163 152 144 124 246 251 228 174 189 176 163 161 151 150 157 165 172 169 169 171 172 174 178 182 181 174 173 164 172 185 185 184 175 175 171 164 157 155 157 167 165 162 157 156 158 165 171 169 169 160 168 170 174 168 159 143 128 95 64 56 83 108 94 36 33 38 48 61 42 25 356 351 5 353 349 5 7 343 348 329 340
111 215 212 172 110 197 262 204 214 188 174 131 147 149 208 123 66 141 154 173 208 212 219 239 193 161 157 162 162 156 164 172 177 174 177 175 173 177 172 168 162 159 151 175 187 183 187 181 181 172 173 174 173 168 174 170 170 171 173 177 166 179 178 180 181 182 186 194 183 177 137 128 134 138 122 297 285 56 160 255 322 2 18 41 31 2 345 349 346 348 350 330 350 360 332 314 310
277 304 274 216 221 241 283 286 207 161 139 149 177 200 101 153 185 191 176 191 229 227 204 186 171 177 167 158 155 164 170 178 182 184 179 179 178 176 175 172 173 177 176 190 184 186 182 181 184 172 177 177 180 178 173 173 185 185 176 175 173 194 187 183 197 198 201 188 185 171 163 176 175 184 190 227 248 236 228 243 263 334 300 314 328 330 309 326 334 336 339 325 329 343 328 320 312
227 262 316 310 179 232 345 297 10 204 157 191 168 113 150 156 174 189 198 240 250 313 208 141 136 128 151 156 172 173 176 178 187 188 184 183 180 181 178 176 184 181 184 188 186 183 185 188 181 175 181 179 183 179 179 188 187 182 181 176 195 192 181 202 204 205 197 186 184 189 186 180 182 189 206 206 234 214 236 236 243 288 288 271 244 206 304 311 315 320 326 319 326 326 323 315 320
247 276 265 271 238 249 309 280 199 153 176 98 127 142 195 175 181 108 231 231 308 360 120 123 137 147 174 171 175 177 179 180 185 193 193 195 191 181 181 179 178 178 190 192 189 185 192 185 176 184 183 185 184 175 184 190 187 188 178 186 196 189 198 208 208 196 203 193 185 184 172 176 186 193 196 217 192 221 243 233 221 241 267 268 266 281 243 278 296 298 302 299 311 305 312 303 312
202 236 233 308 285 320 315 355 157 149 139 129 112 172 279 223 63 197 220 231 236 144 119 134 142 156 178 187 182 179 185 187 182 187 195 190 181 170 187 181 178 185 195 190 186 196 190 180 181 189 187 187 183 173 191 184 190 191 193 193 193 180 205 212 200 203 211 185 193 186 189 179 182 186 203 206 190 226 230 232 226 245 241 264 218 256 241 239 259 276 276 274 281 288 296 292 330
310 307 270 260 265 341 7 166 266 197 142 198 154 167 161 332 90 251 236 179 125 122 137 147 152 171 185 188 191 191 186 191 188 179 179 192 193 187 188 185 184 194 184 192 194 196 189 182 191 190 191 187 178 186 187 194 187 197 196 196 183 194 202 198 206 215 204 203 200 188 190 192 182 187 193 195 212 226 237 227 237 236 259 253 219 246 219 224 241 248 257 269 279 287 283 281 294
315 308 307 271 311 278 252 24 252 142 185 138 131 138 269 306 68 231 214 160 151 141 154 162 172 175 184 192 195 198 200 197 181 176 191 192 196 191 190 187 192 192 186 195 195 191 187 193 192 191 190 188 184 191 189 193 194 198 198 192 194 200 192 190 201 212 212 213 205 191 190 197 187 196 190 189 198 216 232 232 253 221 240 243 220 233 238 226 235 250 254 247 245 250 276 284 269
292 298 289 292 333 295 222 199 235 224 215 145 149 74 295 221 224 238 259 139 139 154 162 173 182 184 187 193 198 203 206 197 192 198 203 200 191 193 195 193 188 191 200 193 192 187 194 195 193 193 188 187 191 193 192 198 195 194 195 200 199 194 191 188 199 207 209 212 196 198 197 188 188 190 202 199 199 211 219 227 249 246 259 268 243 243 253 239 248 269 272 255 267 251 288 293 295
312 256 198 300 329 297 255 110 337 149 252 149 130 204 243 232 233 263 157 138 117 132 172 183 188 186 191 192 201 213 214 203 212 211 204 200 197 194 197 197 194 191 190 197 186 195 197 197 194 188 189 189 196 196 192 194 198 198 197 199 199 191 189 188 203 208 206 204 196 197 198 191 188 180 168 189 193 200 204 211 237 260 257 243 214 206 235 235 245 268 263 304 289 315 296 288 306
268 274 142 203 142 260 285 166 160 164 187 143 106 210 267 256 246 228 189 161 151 168 188 191 193 192 193 198 205 212 218 215 216 216 214 209 203 198 201 195 197 196 183 189 193 197 192 195 188 192 189 195 194 198 195 200 197 195 194 196 199 195 189 190 197 201 202 203 192 202 195 192 192 181 168 145 146 146 155 173 212 233 229 211 213 204 206 217 219 241 268 287 291 279 271 278 281
277 258 261 5 165 281 295 14 154 178 284 84 121 256 240 256 251 233 202 177 168 177 187 193 197 200 200 202 210 216 222 223 237 237 229 223 211 205 198 202 192 195 193 192 192 187 196 197 191 192 188 195 198 199 199 198 196 195 192 193 192 196 187 188 187 192 194 187 192 198 194 191 179 178 176 156 147 165 152 175 229 233 235 201 227 159 188 261 258 270 248 213 259 273 280 290 270
261 199 277 213 125 238 347 228 214 167 107 9 170 210 318 279 262 272 201 169 185 180 192 197 203 206 205 209 213 219 228 239 243 237 232 223 221 212 205 201 197 198 192 190 191 188 194 196 194 193 190 196 198 201 199 198 190 193 192 188 194 190 189 192 190 187 177 172 185 192 186 185 176 177 180 172 142 151 149 169 235 227 210 202 223 182 217 236 244 252 268 260 257 276 280 276 290
280 19 213 208 179 210 254 307 271 201 138 206 255 217 234 244 314 320 194 186 174 191 199 205 207 206 209 211 217 220 222 226 229 227 228 221 222 215 208 201 200 197 199 195 194 191 194 191 194 198 195 195 194 195 194 192 192 189 188 189 186 193 203 199 196 179 183 171 161 174 166 172 184 183 178 170 147 165 173 207 245 223 193 194 198 127 247 221 215 216 254 252 229 235 273 290 289
223 218 250 280 318 211 201 165 242 133 257 194 206 243 264 271 297 302 225 225 187 198 198 202 204 208 211 211 216 223 224 225 233 226 223 221 220 218 209 200 198 202 203 201 198 198 195 193 191 199 194 193 195 192 191 191 187 189 180 178 188 202 208 223 208 198 197 176 175 172 165 165 190 203 197 191 191 196 221 246 250 277 290 187 179 214 242 236 237 227 234 269 290 231 250 257 259
201 181 200 187 188 224 222 241 282 174 180 221 195 213 235 249 262 286 201 196 203 220 218 229 228 228 228 221 224 223 225 233 237 230 225 224 221 214 210 201 199 199 202 200 201 197 199 196 193 195 197 191 188 186 180 186 182 188 185 186 210 214 204 199 217 215 206 204 202 171 171 172 188 205 225 238 217 219 224 233 236 226 211 158 227 275 274 254 240 247 259 254 284 285 233 250 263
272 278 196 214 196 257 251 259 263 301 140 223 213 226 240 259 245 240 205 155 240 243 229 224 224 217 219 225 223 224 225 229 233 224 219 217 217 215 212 199 197 194 199 197 199 202 199 196 186 200 195 184 181 184 186 184 188 196 204 193 201 188 195 197 206 210 206 209 214 239 226 205 197 201 214 213 223 228 232 244 249 278 194 190 204 233 241 255 253 239 263 225 256 276 290 261 259
240 254 225 238 202 213 220 196 352 325 172 243 218 250 263 256 263 254 211 151 229 223 222 227 226 221 220 218 225 225 227 252 258 235 225 218 214 212 205 202 189 191 205 194 201 203 200 195 194 196 183 188 193 191 186 190 193 191 182 186 165 164 178 192 211 206 205 207 210 189 190 212 242 236 229 220 224 210 221 222 224 240 221 222 224 230 248 264 263 256 237 288 215 246 272 273 266
228 229 241 233 241 258 304 298 327 319 155 259 32 213 252 255 255 192 193 207 230 219 213 216 209 218 222 220 227 231 234 236 225 235 230 218 214 209 199 201 201 203 197 197 204 200 200 199 201 192 189 188 195 192 185 196 189 184 175 165 161 163 218 195 200 194 186 196 211 194 188 209 207 221 220 218 212 204 214 222 234 235 231 226 262 278 256 269 250 255 244 240 291 254 261 294 270
227 227 184 229 216 154 248 289 351 356 123 271 191 204 270 284 295 253 230 209 235 229 219 242 225 219 217 215 211 213 219 224 225 223 220 215 212 209 202 204 204 200 198 198 197 200 202 206 202 195 194 193 191 193 193 190 174 166 150 145 157 146 181 180 161 33 166 177 228 233 210 209 207 212 216 211 212 206 212 221 245 267 254 220 228 283 314 292 294 277 271 273 259 301 327 312 5
234 213 210 219 201 231 146 207 117 276 21 90 83 6 302 267 269 288 262 213 239 262 246 257 252 241 245 284 283 226 220 214 223 229 232 222 215 211 204 205 197 198 201 199 196 197 198 204 203 197 194 195 194 188 185 161 134 124 96 63 78 76 51 72 133 237 190 198 255 185 224 202 214 222 223 230 216 252 332 321 300 271 247 194 171 218 260 301 315 296 330 346 219 226 305 310 309
255 229 206 217 199 200 239 125 115 75 272 274 162 300 274 274 251 236 250 64 223 236 227 246 242 235 236 242 237 229 233 222 217 223 218 212 210 213 215 210 201 205 206 206 198 200 197 201 199 198 196 193 193 189 176 164 171 165 156 156 164 167 190 166 193 207 231 219 215 236 206 189 211 227 227 205 201 148 87 25 52 85 103 72 78 136 105 74 49 33 11 333 321 268 220 303 298
233 257 192 217 204 186 142 155 121 186 200 273 28 195 265 324 266 234 250 278 254 284 234 246 247 242 229 233 231 224 220 223 233 245 245 220 230 218 217 208 206 205 213 201 196 199 198 195 191 191 194 196 190 177 171 169 174 180 182 185 185 188 196 207 192 212 200 218 166 139 159 193 187 167 103 100 97 99 93 84 75 83 85 94 87 82 78 73 76 67 48 73 74 57 58 8 326
238 249 182 199 178 155 195 162 176 206 271 296 53 133 204 274 272 271 308 250 264 273 261 256 250 240 235 231 227 225 222 217 209 221 224 220 211 203 206 207 202 209 205 183 196 196 196 195 187 191 192 190 185 172 173 179 180 180 180 186 185 185 191 196 191 192 147 146 129 120 107 73 70 65 88 73 69 117 102 86 78 83 92 70 98 122 100 87 92 76 63 65 69 66 92 94 30
225 234 167 189 187 188 174 174 174 193 157 257 242 250 220 252 264 315 324 292 273 255 247 246 243 237 235 232 229 227 224 217 204 212 219 214 208 208 211 210 216 208 171 188 196 198 197 193 189 187 191 186 185 177 177 184 182 178 179 175 182 199 180 173 144 131 132 139 119 120 108 94 72 60 54 77 82 64 65 82 75 73 73 70 90 72 71 90 90 79 52 55 65 63 63 87 75
254 135 75 69 56 60 144 167 143 72 162 240 206 191 205 278 270 303 348 235 263 258 246 238 234 233 228 230 236 230 228 229 222 222 223 223 227 228 222 213 183 213 221 215 208 187 194 188 189 186 196 189 184 180 180 182 179 170 175 179 179 170 136 120 143 141 141 145 125 123 104 91 87 73 52 48 60 55 64 61 66 65 61 51 58 75 79 69 56 57 51 54 44 53 24 44 67
105 124 76 25 35 64 34 67 97 65 243 236 196 207 184 265 235 205 182 212 207 235 265 275 263 250 230 223 224 220 216 215 213 215 224 227 232 215 193 190 203 194 191 181 193 183 182 187 189 193 198 185 180 182 178 180 175 175 177 177 175 164 159 147 137 132 129 129 130 121 109 99 81 81 76 63 63 67 67 62 76 77 74 76 65 59 53 78 88 85 70 57 58 62 41 53 50
152 157 129 71 357 25 50 346 58 191 247 255 276 191 154 213 294 265 230 257 224 211 228 247 268 265 251 241 236 227 218 214 206 197 201 173 135 137 154 185 184 177 146 169 183 170 171 185 181 193 195 189 185 181 180 176 174 178 177 174 173 169 161 161 157 157 162 153 146 137 137 112 91 87 82 84 56 51 76 76 75 76 65 64 63 64 60 54 59 67 62 53 41 40 44 50 47
227 123 142 173 230 87 243 110 209 215 214 295 17 171 21 245 228 249 276 266 251 214 222 240 254 268 252 236 226 221 219 204 195 195 182 181 176 172 180 188 168 180 191 187 182 181 172 169 180 183 197 190 187 175 179 173 174 179 175 175 173 166 167 165 162 160 165 156 154 148 145 122 142 108 64 82 70 76 90 86 76 78 77 69 83 73 63 64 72 74 70 62 53 48 54 64 64
188 196 174 179 171 187 195 237 325 334 283 278 11 334 278 273 285 249 255 255 229 224 232 241 249 256 263 252 228 215 213 205 200 189 191 189 190 191 188 183 194 195 177 192 240 230 187 175 178 182 187 186 176 174 173 170 179 178 176 173 165 162 165 162 160 155 157 150 150 144 138 140 134 132 131 121 137 104 86 100 96 84 83 83 77 78 73 70 76 79 74 69 59 47 61 68 69
210 17 182 180 147 167 206 190 193 213 199 275 282 111 233 138 238 243 225 271 317 255 251 250 252 254 263 262 214 206 212 220 208 197 197 200 205 197 191 189 198 199 177 183 202 212 181 176 167 166 148 179 170 170 163 167 166 166 166 164 157 156 151 146 142 144 145 140 141 121 117 127 130 147 132 133 121 109 95 83 86 87 79 75 73 73 70 72 76 80 74 81 64 43 68 68 53
209 198 63 171 219 150 166 204 148 174 142 15 237 206 192 178 263 283 268 289 292 257 275 258 250 272 249 208 203 204 203 205 204 208 218 228 219 210 197 194 201 188 177 179 197 197 189 182 172 170 169 165 164 157 161 156 154 147 145 144 145 138 130 123 119 118 121 134 131 125 132 131 129 126 117 118 91 99 106 98 85 82 78 73 68 71 73 75 75 83 72 63 57 14 59 55 42
197 131 210 220 73 104 95 57 79 103 49 248 150 315 291 302 317 294 337 330 280 301 275 268 254 273 249 232 222 208 202 203 204 210 210 213 217 227 208 194 181 169 172 185 188 195 188 167 164 154 148 149 151 154 147 145 140 136 134 132 133 136 139 142 141 136 129 114 113 117 127 129 118 116 121 104 105 89 96 104 95 83 74 72 72 67 73 77 78 77 73 64 53 5 55 50 25
86 197 233 177 158 119 140 209 353 62 188 252 93 208 281 112 244 337 343 311 266 272 255 257 279 257 234 230 214 209 207 209 213 221 217 206 197 192 199 212 187 173 173 174 180 194 185 172 164 151 150 146 141 138 139 141 135 130 131 129 129 135 134 131 133 131 126 114 107 110 116 117 124 124 111 110 108 105 95 91 94 83 74 68 69 64 68 71 79 72 73 67 47 53 64 53 40
196 204 206 152 217 230 280 110 226 185 232 262 307 281 275 185 226 352 247 230 255 245 235 273 257 231 231 228 228 231 239 226 215 213 208 206 195 193 187 196 194 194 177 169 168 171 171 155 158 155 151 147 143 134 125 117 126 130 133 134 133 126 124 122 120 119 118 120 125 127 123 126 113 110 115 118 110 105 98 84 87 82 73 71 64 61 63 63 66 73 55 64 32 53 53 34 8
217 127 225 253 126 214 151 204 172 135 252 61 290 77 234 210 223 202 250 226 234 244 196 230 234 230 222 218 213 209 209 209 207 204 204 201 199 193 187 180 177 174 167 162 164 158 164 149 138 127 117 124 127 129 132 127 121 124 121 113 110 121 126 126 126 123 121 125 132 128 127 120 125 117 113 113 111 109 103 97 86 92 82 72 66 52 55 61 63 67 62 52 20 40 44 31 356
180 181 200 223 324 234 104 37 134 183 184 191 192 290 273 254 217 197 229 239 231 205 218 223 228 228 221 217 208 207 208 204 203 197 195 198 201 201 188 177 153 123 130 154 160 166 161 151 144 148 143 144 137 135 130 129 128 127 129 129 128 125 117 114 112 118 119 123 123 119 118 125 113 116 124 114 109 107 107 107 101 84 82 77 71 58 47 65 65 60 46 44 29 33 29 9 8
182 179 206 174 119 118 190 238 51 88 120 224 133 250 271 266 205 203 218 237 169 204 218 240 245 239 223 217 216 204 206 210 197 197 191 190 191 174 129 93 103 121 140 157 160 156 162 164 162 152 143 148 143 139 135 132 127 130 127 124 118 114 118 118 120 122 120 122 120 120 129 119 116 124 121 118 114 118 111 105 95 92 89 85 80 73 53 60 53 42 29 31 26 19 14 356 0